This is the latest recevied weather packets stored in our database for station/object N5COP-13. If no packets are shown the sender has not sent any weather packets the latest 10 day(s).
| Time | Temp. | Humidity | Pressure | Rain* | Wind** | Luminosity | Snow |
|---|---|---|---|---|---|---|---|
| 1778001055 | 17.22° C | 44% | 1011.8 hPa | 0 mm | - | 914 W/m² | - |
| 1778000751 | 16.67° C | 45% | 1011.7 hPa | 0 mm | - | 873 W/m² | - |
| 1778000448 | 16.11° C | 45% | 1011.8 hPa | 0 mm | - | 815 W/m² | - |
| 1778000143 | 16.11° C | 44% | 1011.8 hPa | 0 mm | - | 954 W/m² | - |
| 1777999839 | 16.11° C | 44% | 1011.4 hPa | 0 mm | - | 814 W/m² | - |
| 1777999535 | 15.56° C | 44% | 1011.5 hPa | 0 mm | - | 554 W/m² | - |
| 1777999233 | 15.56° C | 44% | 1011.8 hPa | 0 mm | - | 820 W/m² | - |
| 1777998932 | 16.11° C | 44% | 1011.7 hPa | 0 mm | - | 906 W/m² | - |
| 1777998628 | 16.11° C | 44% | 1011.5 hPa | 0 mm | - | 940 W/m² | - |
| 1777998321 | 15.56° C | 45% | 1011.6 hPa | 0 mm | - | 936 W/m² | - |
| 1777998018 | 15° C | 46% | 1011.7 hPa | 0 mm | - | 796 W/m² | - |
| 1777997715 | 14.44° C | 46% | 1011.7 hPa | 0 mm | - | 632 W/m² | - |
| 1777997412 | 15° C | 46% | 1011.7 hPa | 0 mm | - | 382 W/m² | - |
| 1777997110 | 15° C | 46% | 1011.6 hPa | 0 mm | - | 381 W/m² | - |
| 1777996806 | 15° C | 45% | 1011.5 hPa | 0 mm | - | 318 W/m² | - |
| 1777996497 | 15° C | 44% | 1011.4 hPa | 0 mm | - | 537 W/m² | - |
| 1777996194 | 15° C | 45% | 1011.3 hPa | 0 mm | - | 690 W/m² | - |
| 1777995890 | 15° C | 44% | 1011.4 hPa | 0 mm | - | 539 W/m² | - |
| 1777995586 | 15° C | 45% | 1011.2 hPa | 0 mm | - | 354 W/m² | - |
| 1777995284 | 14.44° C | 45% | 1010.9 hPa | 0 mm | - | 554 W/m² | - |
| 1777994981 | 14.44° C | 45% | 1010.9 hPa | 0 mm | - | 550 W/m² | - |
| 1777994677 | 14.44° C | 45% | 1010.8 hPa | 0 mm | - | 704 W/m² | - |
| 1777994372 | 13.89° C | 46% | 1010.9 hPa | 0 mm | - | 500 W/m² | - |
| 1777994068 | 13.33° C | 46% | 1010.6 hPa | 0 mm | - | 451 W/m² | - |
| 1777993765 | 13.33° C | 46% | 1010.7 hPa | 0 mm | - | 295 W/m² | - |
* Rain latest hour (hover to see other rain measurements)
** Current wind speed in m/s (hover to see current wind gust speed)